Race Results for
Watsonville Criterium
Watsonville, CA
(Event Information)
View By:
Criterium on 07/16/2011

Note: Ranking points are NOT upgrade points. An explanation of ranking points can be found here.


Men - Cat4/5

 Place Points NameCity, StateTime USAC #BibTeam
1Stuyker MCSWIGGINS   00:00.0  139 
2373.94Curtis Hong   Dublin, CA00:00.0 305875  182 SJBC
3381.87Mackenzie Kelly   Santa Cruz, CA00:00.0 286297  185 Spokesman
4389.79giuseppe errico   Mountain View, CA00:00.0 353204  151 Form Fitness
5397.72Robert Gaukel   Santa Cruz, CA00:00.0 261233  130 Team Bicycle Trip/Symantec
6405.65roger turner   Santa Cruz, CA00:00.0 309354  199 
7413.57Michael Larson   Truckee, CA00:00.0 234067  188 
8421.50franco campilongo   Menlo Park, CA00:00.0 261918  166 Form Fitness
9429.42Chris Cain   Monterey, CA00:00.0 339008  149 
10437.35Branton Curt   Saratoga, CA00:00.0 218287  177 Los Gatos Bicycle Club
11445.27Ansel Mills   Sacramento, CA00:00.0 356378  171 
12453.20Richard Della Maggiore   Gilroy, CA00:00.0 178921  168 
13461.12Hussein Saffouri   Piedmont, CA00:00.0 41848  196 Berkeley Bike Club (BBC)
14469.05juan rosas   San Jose, CA00:00.0 332154  195 Aptos Bike Station
15476.98Jeong Kim   San Jose, CA00:00.0 63591  187 
16484.90Tim Tsuruda   Sunnyvale, CA00:00.0 314158  198 Chica Sexy
17492.83Don Chapin   Salinas, CA00:00.0 348760  176 Don Chapin Monterey Bay Racing
18500.75Joseph Sullivan   San Jose, CA00:00.0 336936  197 SJBC
19508.68Isaias Job   Fremont, CA00:00.0 207885  184 Team Roaring Mouse
20516.60Ivan Poddubnyy   San Jose, CA00:00.0 266310  173 Webcor/Alto Velo
21524.53Nicholas Hack   Berkeley, CA00:00.0 281233  180 Team Roaring Mouse
22532.46Paul Robins   Watsonville, CA00:00.0 243094  194 One Team Racing
23540.38Matthew Gregory   Escalon, CA00:00.0 250497  179 FunSport Cycling Team
24548.31Justin Morgan   Fresno, CA00:00.0 238135  169 Stevens Bicycle Racing
25556.23Scott Moore   Santa Cruz, CA00:00.0 256976  131 Bicycle Trip
26564.16Magnus Gille   Mountain View, CA00:00.0 330394  172 Webcor/Alto Velo
27572.08Daniel Gomez (1 - Cat5)   Sunnyvale, CA00:00.0 318398  178 
28580.01Dave Blevins (2 - Cat5)   Orangevale, CA00:00.0 352894  174 
DNSErik Camacho   San Jose, CA00:00.0 303224  133 SJBC
DNSTim Huang   Santa Clara, CA00:00.0 334324  183 SJBC
DNSJason MartelDye   Sacramento, CA00:00.0 310948  190 
DNSJeremiah Michaels   San Francisco, CA00:00.0 347406  191 Alto Velo
DNPMatthew Batz   Campbell, CA00:00.0 103222  167 Webcor/Alto Velo
DNPDaniel Hertel   Arroyo Grande, CA00:00.0 300030  181 Central Coast Tire CCT
DNPMateo Ortega   Brisbane, CA00:00.0 255427  192 Team Roaring Mouse
DNFJames Allen   Danville, CA00:00.0 287305  132 Webcor/Alto Velo
DNFTony Lopes   Sanfrancisco, CA00:00.0 305951  189 Berkeley Bike Club (BBC)
DNFCam Primavera (Cat5)   Aptos, CA00:00.0 316156  193 One Team Racing

Men - Cat1/2/3 - Master - 35-99

 Place Points NameCity, StateTime USAC #BibTeam
1165.26Tracy Colwell   Sunnyvale, CA00:00.0 125475  591 Webcor/Alto Velo
2182.08Brian Heneghan   San Jose, CA00:00.0 63508  598 SJBC
3198.90Sean Tompkins   Morganhill, CA00:00.0 300546  596 SJBC
4215.72Robert MacNeill   San Carlos, CA00:00.0 199599  592 Webcor/Alto Velo
5232.54David Avila   Emerald Hills, CA00:00.0 55625  594 One Team Racing
6249.36Chris Ott   San Jose, CA00:00.0 26920  595 HDR Racin p/b Lombardi
7266.18Tim Butler   Clovis, CA00:00.0 239746  593 Sierra Pacific Racing
DNSAaron Hunter   Santa Cruz, CA00:00.0 215194  599 Great Basin Imaging/Kinetic Cy
DNPMitch Boehs   Livingston, CA00:00.0 237309  597 Sierra Pacific Racing

Men - Cat1/2/3 - Master - 45-99

 Place Points NameCity, StateTime USAC #BibTeam
1166.29Donald Langley   Morgan Hill, CA00:00.0 20327  942 Morgan Stanley Smith Barney/Sp
2185.57Steven Gile (1 - Cat2)   Salinas, CA00:00.0 98978  947 VOS Racing
3204.86Chris Wire   Saratoga, CA00:00.0 152176  943 SJBC
4224.14Jeremy Wire   Menlo Park, CA00:00.0 285056  944 SJBC
5243.42Dean Knudsen (2 - Cat2)   Pacific Grove, CA00:00.0 74410  999 International Christian Cyclin
6262.70Gregory Pike   Salinas, CA00:00.0 158350  948 VOS Racing
7281.99Justin Eatinger   Incline Village, NV00:00.0 10382  941 Audi
8301.27Paul DeBacker   Mountain View, CA00:00.0 168436  949 Webcor/Alto Velo
9320.55John Devere   Madera, CA00:00.0 297594  946 Sierra Pacific Racing
10339.83Steven Olechny   Saratoga , CA00:00.0 142113  945 Taleo Racing
DNSJames Coats (Cat2)   Campbell, CA00:00.0 7200  940 calif giant berry farms/specia

Men - Cat 4 - Master - 35-99

 Place Points NameCity, StateTime USAC #BibTeam
1350.02Wyatt Garcia   Atwater, CA00:00.0 287655  887 Kevins Bikes
2361.49Dan Shore   Modesto, CA00:00.0 336300  878 Fun Sport Bikes Cycling Team
3372.96Matthew Johnston   Merced, CA00:00.0 304638  890 Team Mason Thomas
4384.43Greg Tsutaoka   Oakland, CA00:00.0 296665  899 Berkeley Bike Club (BBC)
5395.89Scott Freiermuth   Menlo Park, CA00:00.0 59509  885 CoreTechs Cycling
6407.36Morgan Raines   Santa Cruz, CA00:00.0 304464  894 
7418.83Justin Morgan   Fresno, CA00:00.0 238135  880 Stevens Bicycle Racing
8430.30Joseph Sullivan   San Jose, CA00:00.0 336936  897 SJBC
9441.77Hussein Saffouri   Piedmont, CA00:00.0 41848  895 Berkeley Bike Club (BBC)
10453.24Steven Kelly   Cocoa, FL00:00.0 352036  883 SJBC
11464.70Isaias Job   Fremont, CA00:00.0 207885  889 Team Roaring Mouse
12476.17Chris Scheetz   Los Altos, CA00:00.0 216916  896 CoreTechs Cycling Team
13487.64Jeong Kim   San Jose, CA00:00.0 63591  891 
14499.11Erik Camacho   San Jose, CA00:00.0 303224  884 SJBC
15510.58Matthew Gregory   Escalon, CA00:00.0 250497  888 FunSport Cycling Team
DNSChris Furgiuele   San Francisco, CA00:00.0 310646  886 Dolce Vita Cycling
DNSAdrian Tieslau   Kings Beach, CA00:00.0 271946  898 Reno Wheelmen
DNPSteve Jones   San Jose, CA00:00.0 272546  879 NorCal Elite Cycling
DNFKeith Reed   Pleasanton, CA00:00.0 304119  881 Tri Valley Velo
DNFTony Lopes   Sanfrancisco, CA00:00.0 305951  892 Berkeley Bike Club (BBC)
DNFMateo Ortega   Brisbane, CA00:00.0 255427  893 Team Roaring Mouse

Men - Cat 3

 Place Points NameCity, StateTime USAC #BibTeam
1208.96Jack Maddux   Fresno00:00.0 296879  296 Team Specialized Racing Junior
2218.52Neema Assemi   Fresno, CA00:00.0 306675  286 Sierra Pacific Racing
3228.07Patrick Thomas   Aptos, CA00:00.0 294849  283 
4237.63Matt Paliughi   Fresno, CA00:00.0 300085  288 Sierra Pacific Racing
5247.18Sean Tompkins   Morganhill, CA00:00.0 300546  294 SJBC
6256.74Matt Schaupp   Watsonville, CA00:00.0 311816  290 Spokesman Bikes
7266.30Rob Maheu   Hollister, CA00:00.0 22166  289 SJBC
8275.85Garrett Hankins   Carmichael, CA00:00.0 298571  284 Team Bicycles Plus/Sierra Neva
9285.41Mitch Boehs   Livingston, CA00:00.0 237309  295 Sierra Pacific Racing
10294.96Tim Butler   Clovis, CA00:00.0 239746  293 Sierra Pacific Racing
11304.52Johnny Mullane   Watsonville, CA00:00.0 281204  297 Bike Station Aptos
12314.07Ernest Gallardo   Greenfield, CA00:00.0 90586  292 VOS Racing
13323.63Steven Woo   Los Altos, CA00:00.0 38840  299 Third Pillar
14333.19Scott Butler   Columbia, MO00:00.0 106701  285 Michael David Winery Cycling T
15342.74Jonathan Racine   San Jose, CA00:00.0 200129  298 Great Basin Imaging | Kinetic
DNFVictor Mirzayan   Fresno, CA00:00.0 262853  287 Sierra Pacific Racing
DNFNeil REEDER   00:00.0  291 GWRTeam

Men - Pro/Cat 1/2

 Place Points NameCity, StateTime USAC #BibTeam
1117.64Steve Reaney (1 - Cat1)   San Jose, CA00:00.0 133288  848 California Giant Berry Farms/S
2128.97Rand Miller (2 - Cat1)   San Francisco, CA00:00.0 182990  841 Webcor/Alto Velo
3140.31John Wilk (3 - Cat1)   Oakland, CA00:00.0 199951  835 Webcor/Alto Velo
4151.65James Mattis   Mountain View, CA00:00.0 127344  846 California Giant Berry Farms/S
5162.98Ian Moir (4 - Cat1)   Long Beach, CA00:00.0 218004  847 Yahoo! Cycling Team
6174.32Keith Miller (5 - Cat1)   Los Gatos, CA00:00.0 53753  839 California Giant Berry Farms/S
7185.66Greg Davis   Los Altos, CA00:00.0 119459  834 Los Gatos
8197.00James Coats (1 - Cat2)   Campbell, CA00:00.0 7200  840 California Giant Berry Farms/S
9208.33Robert Amatelli (2 - Cat2)   San Jose, CA00:00.0 270304  838 
10219.67Robbie Franscioni (3 - Cat2)   Salinas, CA00:00.0 298805  837 Bay Bikes/Specialized
11231.01John Devere   Madera, CA00:00.0 297594  845 Sierra Pacific Racing
12242.34Peter Taylor (4 - Cat2)   Walnut Creek, CA00:00.0 219859  849 California Giant Berry Farms/S
DNPMarissa Axell   El Cerrito, CA00:00.0 269569  842 Touchstone Climbing
DNPEmily Thurston   San Pablo, CA00:00.0 128351  843 Touchstone Climbing
DNPRobert MacNeill   San Carlos, CA00:00.0 199599  844 Webcor/Alto Velo

Men - Junior - 10-18

 Place Points NameCity, StateTime USAC #BibTeam
1Elnora COLE   00:00.0  652 
DNSWill Wright   Campbell, CA00:00.0 351738  699 

Women - Cat1/2/3/4

 Place Points NameCity, StateTime USAC #BibTeam
1186.42Emily Thurston   San Pablo, CA00:00.0 128351  959 Touchstone Climbing
2236.07Holly Liske (1 - Cat2)   Stanford, CA00:00.0 190109  958 Webcor/Alto Velo
3285.71Fiona Strouts   Menlo Park, CA00:00.0 338404  957 
4335.35Marissa Axell   El Cerrito, CA00:00.0 269569  960 Touchstone Climbing
5Jennifer JAMES   00:00.0  961 

Report missing or incorrect license numbers

Volkswagen
SpyBonk BreakerUSACDFShimanoSierra Nevada
UCI USA Cycling is the official governing body for all disciplines of competitive cycling in the United States. The 501c3, membership-based organization aims both to achieve sustained success in international cycling competition and to grow competitive cycling in America while delivering an exceptional customer experience.
View Children's Online Privacy Protection Policy
US Olympic Committee